Regional Weather Roundup
Issued by NWS Albany, NY

Home | Current Version | Previous Version | Text Only | Print | Product List | Glossary On
Versions: 1 2 3 4 5 6 7 8 9 10 11 12 13 14 15 16 17 18 19 20 21 22 23 24 25 26 27 28 29 30 31 32 33 34 35 36 37 38 39 40 41 42 43 44 45 46 47 48 49 50
000
ASUS41 KALY 311310
RWRALY

NEW YORK STATE HOURLY WEATHER ROUNDUP
NATIONAL WEATHER SERVICE ALBANY NY
900 AM EDT MON AUG 31 2015

NOTE: "FAIR" INDICATES FEW OR NO CLOUDS BELOW 12,000 FEET WITH NO
SIGNIFICANT WEATHER AND/OR NO OBSTRUCTIONS TO VISIBILITY.

NYZ032-033-038>043-046>054-057>066-NYZ062>081-311400-
EAST


CITY           SKY/WX    TMP DP  RH WIND       PRES   REMARKS
ALBANY         PTSUNNY   70  66  87 S5        30.02R FOG
GLENS FALLS    SUNNY     67  63  87 SE6       30.00S
POUGHKEEPSIE   PTSUNNY   74  68  81 CALM      30.02S
NEWBURGH       PTSUNNY   70  68  94 W7        30.05S
MONTGOMERY     PTSUNNY   75  69  81 SW6       30.04S
WHITE PLAINS   CLOUDY    76  67  73 NW8       30.03F
ISLIP          PTSUNNY   79  69  71 W9        30.01S
NEW YORK CITY  PTSUNNY   79  66  64 W6        30.03S
CENTRAL PARK   PTSUNNY   79  66  64 W3        30.06S
$$

NYZ005>009-017-018-044>046-055-056-311400-
CENTRAL


CITY           SKY/WX    TMP DP  RH WIND       PRES   REMARKS
FULTON         MOSUNNY   71  66  84 SW8       30.02R
SYRACUSE       MOSUNNY   74  67  78 SW7       30.02R
ROME           PTSUNNY   67  63  87 CALM      30.04S
ELMIRA         MOSUNNY   68  67  96 SW6       30.06S
BINGHAMTON     MOSUNNY   68  66  93 W8        30.09R
MONTICELLO     MOSUNNY   70  66  88 W7        30.10S
$$

NYZ026>034-041>043-311400-
NORTH


CITY           SKY/WX    TMP DP  RH WIND       PRES   REMARKS
WATERTOWN      CLOUDY    70  66  87 SW8       30.00R FOG
FORT DRUM      NOT AVBL
MASSENA        SUNNY     70  63  78 SW8       29.95S
SARANAC LAKE   PTSUNNY   67  63  87 SW7       29.99S
PLATTSBURGH    CLOUDY    69  63  81 S5        29.93S
$$

NYZ001>004-010>016-019>021-311400-
WEST


CITY           SKY/WX    TMP DP  RH WIND       PRES   REMARKS
NIAGARA FALLS  PTSUNNY   69  68  96 SW9       30.04R FOG
BUFFALO        CLOUDY    73  69  87 W10       30.05S
DUNKIRK        PTSUNNY   73  67  81 SW9       30.07R
JAMESTOWN      SUNNY     66  63  88 SW7       30.12S
WELLSVILLE     SUNNY     71  65  81 W9        30.14S
ROCHESTER      CLOUDY    70  66  87 W6        30.04R
PENN YAN       SUNNY     72  67  84 S8        30.06S
$$

             KEY
       WCI = WIND CHILL INDEX
       VSB = VISIBILITY
       HX  = HEAT INDEX
$$


USA.gov is the U.S. government's official web portal to all federal, state and local government web resources and services.